Location: Unspecified
(43.8044°N, 11.0278°E)
Time: 12:53:41
(UTC+02:00)

Okean 3 - Visible Passes

Search period start: 03 September 2015 00:00
Search period end: 13 September 2015 00:00
Orbit: 581 x 604 km, 82.5° (Epoch: 02 September)

Date Brightness Start Highest point End Pass type
(mag) Time Alt. Az. Time Alt. Az. Time Alt. Az.
03 Sep 3.9 05:14:05 10° S 05:18:20 66° E 05:22:38 10° NNE visible
04 Sep 3.4 05:23:00 10° S 05:27:18 81° W 05:31:40 10° N visible
05 Sep 6.3 03:57:18 10° ESE 03:59:25 14° E 04:01:44 10° NE visible
05 Sep 3.7 05:32:24 12° SSW 05:36:20 52° WNW 05:40:35 10° N visible
06 Sep 5.9 04:05:27 11° SE 04:08:15 21° E 04:11:32 10° NE visible
06 Sep 4.2 05:42:05 14° SW 05:45:24 35° WNW 05:49:22 10° N visible
07 Sep 5.2 04:15:04 20° SE 04:17:08 30° E 04:20:58 10° NNE visible
07 Sep 4.7 05:51:42 14° WSW 05:54:31 24° WNW 05:58:01 10° NNW visible
08 Sep 4.4 04:24:37 33° SE 04:26:02 46° E 04:30:12 10° NNE visible
08 Sep 5.2 06:01:15 11° WSW 06:03:42 17° WNW 06:06:25 10° NNW visible
09 Sep 3.6 04:34:08 54° SSE 04:34:58 71° E 04:39:18 10° NNE visible
09 Sep 5.5 06:11:25 10° W 06:12:56 11° WNW 06:14:13 10° NW visible
10 Sep 3.3 04:43:35 70° SW 04:43:57 76° W 04:48:18 10° N visible
11 Sep 6.2 03:16:23 15° E 03:16:23 15° E 03:18:33 10° NE visible
11 Sep 3.7 04:53:01 49° WNW 04:53:01 49° WNW 04:57:11 10° N visible
12 Sep 5.8 03:25:46 21° ENE 03:25:46 21° ENE 03:28:15 10° NE visible
12 Sep 4.4 05:02:24 32° WNW 05:02:24 32° WNW 05:05:57 10° N visible
